DL9BGG-13 Weather Reports


Display with metric or nautical units.
time (UTC)temp
F
wind
direction
speed
MPH
gust
MPH
rain 1hr
in
rain 24hr
in
rain mn
in
humidity
%
barometer
mb
20260831222606 62 315 114.0 0.0 0.00 0.37 0.00 91 1057.4
20260831222000 62 315 114.0 0.0 0.00 0.37 0.00 91 1057.4
20260831221416 62 315 114.0 0.0 0.00 0.37 0.00 91 1057.3
20260831220833 62 315 5.0 0.0 0.00 0.37 0.00 91 1057.3
20260831220701 61 292 4.0 0.0 0.00 0.37 0.00 91 1057.4
20260831220556 62 247 8.0 0.0 0.00 0.37 0.00 91 1057.4
20260831220449 62 292 6.0 0.0 0.00 0.37 0.00 91 1057.4
20260831220343 62 270 3.0 0.0 0.00 0.37 0.00 91 1057.4
20260831220222 62 292 0.0 0.0 0.00 0.37 0.00 91 1057.3
20260831220108 62 315 5.0 0.0 0.00 0.37 0.00 90 1057.4
20260831215954 62 292 7.0 0.0 0.00 0.37 0.00 90 1057.3
20260831215848 62 315 3.0 0.0 0.00 0.37 0.00 90 1057.5
20260831215743 62 0 7.0 0.0 0.00 0.37 0.00 90 1057.4
20260831215621 62 315 7.0 0.0 0.00 0.37 0.00 90 1057.5
20260831215404 63 315 13.0 0.0 0.00 0.37 0.00 91 1057.5
20260831215207 62 292 8.0 0.0 0.00 0.37 0.00 92 1057.4
20260831215038 62 292 5.0 0.0 0.00 0.37 0.00 92 1057.3
20260831214844 62 247 10.0 0.0 0.00 0.37 0.00 92 1057.3
20260831214733 62 315 3.0 0.0 0.00 0.37 0.00 92 1057.3
20260831214618 62 337 4.0 0.0 0.00 0.37 0.00 92 1057.3
20260831214505 62 292 6.0 0.0 0.00 0.37 0.00 92 1057.4
20260831214354 62 292 5.0 0.0 0.00 0.37 0.00 92 1057.3
20260831214248 62 315 4.0 0.0 0.00 0.37 0.00 92 1057.3
20260831214135 62 292 7.0 0.0 0.00 0.37 0.00 92 1057.2
20260831214029 62 292 8.0 0.0 0.00 0.37 0.00 92 1057.1
20260831213924 62 337 3.0 0.0 0.00 0.37 0.00 92 1057.1
20260831213811 62 315 3.0 0.0 0.00 0.37 0.00 92 1057.1
20260831213704 62 292 4.0 0.0 0.00 0.37 0.00 92 1057.1
20260831213546 62 292 4.0 0.0 0.00 0.37 0.00 92 1057.2
20260831213441 62 292 4.0 0.0 0.00 0.37 0.00 92 1057.2
20260831213336 62 292 4.0 0.0 0.00 0.37 0.00 92 1057.1
20260831213230 62 315 6.0 0.0 0.00 0.37 0.00 92 1057.1
20260831213116 62 315 4.0 0.0 0.00 0.37 0.00 92 1057.2
20260831212947 62 270 7.0 0.0 0.00 0.37 0.00 92 1057.1
20260831212834 62 315 4.0 0.0 0.00 0.37 0.00 92 1057.1
20260831212721 62 292 5.0 0.0 0.00 0.37 0.00 92 1057.1
20260831212559 62 0 4.0 0.0 0.00 0.37 0.00 92 1057.1
20260831212430 62 292 7.0 0.0 0.00 0.37 0.00 92 1057.1
20260831212311 61 337 3.0 0.0 0.00 0.37 0.00 92 1057.1
20260831212205 62 292 2.0 0.0 0.00 0.37 0.00 92 1057.1
20260831212059 62 315 0.0 0.0 0.00 0.37 0.00 92 1057.1
20260831211946 62 337 4.0 0.0 0.00 0.37 0.00 92 1057.0
20260831211824 62 315 1.0 0.0 0.00 0.37 0.00 92 1057.1
20260831211704 62 292 4.0 0.0 0.00 0.37 0.00 92 1057.0
20260831211601 62 292 3.0 0.0 0.00 0.37 0.00 92 1057.0
20260831211453 62 292 6.0 0.0 0.00 0.37 0.00 92 1057.0
20260831211341 62 270 2.0 0.0 0.00 0.37 0.00 92 1057.0
20260831211219 62 292 2.0 0.0 0.00 0.37 0.00 92 1056.9
20260831211106 62 292 6.0 0.0 0.00 0.37 0.00 92 1056.9
20260831210938 62 337 6.0 0.0 0.00 0.37 0.00 92 1056.9
20260831210831 62 292 2.0 0.0 0.00 0.37 0.00 92 1056.9
20260831210710 62 337 3.0 0.0 0.00 0.37 0.00 92 1056.9
20260831210550 62 315 1.0 0.0 0.00 0.37 0.00 92 1056.8
20260831210437 62 270 4.0 0.0 0.00 0.37 0.00 92 1056.8
20260831210332 62 315 4.0 0.0 0.00 0.37 0.00 92 1056.8
20260831210226 62 270 4.0 0.0 0.00 0.37 0.00 92 1056.8
20260831210113 62 292 6.0 0.0 0.00 0.37 0.00 92 1056.9
20260831205953 62 270 4.0 0.0 0.00 0.37 0.00 93 1056.8
20260831205838 62 315 2.0 0.0 0.00 0.37 0.00 92 1056.7
20260831205725 62 292 4.0 0.0 0.00 0.37 0.00 92 1056.7
20260831205604 62 292 2.0 0.0 0.00 0.37 0.00 92 1056.7
20260831205452 62 315 3.0 0.0 0.00 0.37 0.00 92 1056.8
20260831205339 62 315 7.0 0.0 0.00 0.37 0.00 92 1056.8
20260831205217 62 315 5.0 0.0 0.00 0.37 0.00 92 1056.7
20260831205055 62 270 3.0 0.0 0.00 0.37 0.00 92 1056.7
20260831204934 62 292 3.0 0.0 0.00 0.37 0.00 93 1056.7
20260831204815 62 315 3.0 0.0 0.00 0.37 0.00 93 1056.7
20260831204708 62 292 2.0 0.0 0.00 0.37 0.00 93 1056.7
20260831204556 62 315 3.0 0.0 0.00 0.37 0.00 93 1056.6
20260831204449 62 292 6.0 0.0 0.00 0.37 0.00 93 1056.6
20260831204330 62 337 8.0 0.0 0.00 0.37 0.00 93 1056.6
20260831204200 62 0 0.0 0.0 0.00 0.37 0.00 93 1056.6
20260831204054 62 22 2.0 0.0 0.00 0.37 0.00 93 1056.6
20260831203941 62 247 2.0 0.0 0.02 0.37 0.00 93 1056.5
20260831203819 62 315 12.0 0.0 0.02 0.37 0.00 93 1056.4
20260831203650 62 247 4.0 0.0 0.02 0.37 0.00 93 1056.5
20260831203529 62 292 6.0 0.0 0.02 0.37 0.00 93 1056.4
20260831203407 62 270 3.0 0.0 0.02 0.37 0.00 93 1056.4
20260831203239 62 270 6.0 0.0 0.02 0.37 0.00 93 1056.4
20260831203117 62 315 7.0 0.0 0.02 0.37 0.00 93 1056.3
20260831203007 62 292 6.0 0.0 0.02 0.37 0.00 93 1056.4
20260831202900 62 315 2.0 0.0 0.02 0.37 0.00 93 1056.3
20260831202754 62 292 8.0 0.0 0.02 0.37 0.00 93 1056.3
20260831202641 62 315 4.0 0.0 0.02 0.37 0.00 93 1056.3
20260831202519 62 337 4.0 0.0 0.02 0.37 0.00 93 1056.3
20260831202350 62 315 9.0 0.0 0.04 0.37 0.00 93 1056.3
20260831202229 61 315 7.0 0.0 0.04 0.37 0.00 93 1056.2
20260831202108 62 315 3.0 0.0 0.04 0.37 0.00 93 1056.2
20260831201946 62 270 9.0 0.0 0.04 0.37 0.00 93 1056.2
20260831201819 62 292 4.0 0.0 0.04 0.37 0.00 93 1056.2
20260831201704 62 315 3.0 0.0 0.04 0.37 0.00 93 1056.2
20260831201543 62 292 6.0 0.0 0.04 0.37 0.00 93 1056.2
20260831201429 62 315 6.0 0.0 0.04 0.37 0.00 93 1056.0
20260831201308 62 292 6.0 0.0 0.04 0.37 0.00 93 1056.1
20260831201139 62 270 4.0 0.0 0.04 0.37 0.00 93 1056.1
20260831201020 62 315 5.0 0.0 0.04 0.37 0.00 93 1056.0
20260831200904 62 292 3.0 0.0 0.04 0.37 0.00 93 1056.0
20260831200746 62 337 2.0 0.0 0.04 0.37 0.00 93 1056.0
20260831200638 62 315 8.0 0.0 0.04 0.37 0.00 93 1056.1
20260831200509 62 315 5.0 0.0 0.04 0.37 0.00 93 1056.0
20260831200356 62 292 5.0 0.0 0.04 0.37 0.00 93 1056.0
20260831200243 62 315 4.0 0.0 0.04 0.37 0.00 93 1056.0
20260831200129 61 337 3.0 0.0 0.04 0.37 0.00 93 1056.0
20260831200009 61 270 5.0 0.0 0.04 0.37 0.00 93 1055.9
20260831195847 61 292 6.0 0.0 0.04 0.37 0.00 93 1055.9
20260831195726 61 315 0.0 0.0 0.04 0.37 0.00 93 1055.9
20260831195613 61 315 4.0 0.0 0.04 0.37 0.00 93 1055.9
20260831195502 61 292 3.0 0.0 0.04 0.37 0.00 93 1055.9
20260831195354 61 292 0.0 0.0 0.04 0.37 0.00 93 1055.9
20260831195234 61 337 9.0 0.0 0.04 0.37 0.00 93 1055.9
20260831195128 61 0 4.0 0.0 0.04 0.37 0.00 93 1055.8
20260831195007 61 270 7.0 0.0 0.04 0.37 0.00 93 1055.8
20260831194847 61 315 8.0 0.0 0.04 0.37 0.00 93 1055.7
20260831194740 61 315 6.0 0.0 0.06 0.37 0.00 92 1055.7
20260831194622 61 0 8.0 0.0 0.06 0.37 0.00 92 1055.8
20260831194513 61 292 4.0 0.0 0.06 0.37 0.00 92 1055.7
20260831194353 61 337 5.0 0.0 0.06 0.37 0.00 92 1055.7
20260831194234 61 292 4.0 0.0 0.06 0.37 0.00 92 1055.7
20260831194127 61 292 13.0 0.0 0.06 0.37 0.00 92 1055.7
20260831194006 61 315 14.0 0.0 0.04 0.35 0.00 92 1055.7
20260831193852 61 292 4.0 0.0 0.04 0.35 0.00 92 1055.6
20260831193734 61 315 7.0 0.0 0.04 0.35 0.00 92 1055.6
20260831193627 61 337 8.0 0.0 0.04 0.35 0.00 92 1055.6
20260831193514 61 315 5.0 0.0 0.04 0.35 0.00 92 1055.6
20260831193352 61 225 6.0 0.0 0.04 0.35 0.00 92 1055.6
20260831193240 61 0 11.0 0.0 0.04 0.35 0.00 92 1055.6
20260831193127 61 0 0.0 0.0 0.04 0.35 0.00 92 1055.6
20260831193020 62 292 6.0 0.0 0.04 0.35 0.00 92 1055.6
20260831192901 62 292 20.0 0.0 0.04 0.35 0.00 92 1055.5
20260831192749 62 292 6.0 0.0 0.04 0.35 0.00 92 1055.5
20260831192641 62 337 6.0 0.0 0.02 0.33 0.00 92 1055.5
20260831192528 62 292 6.0 0.0 0.02 0.33 0.00 92 1055.5
20260831192410 62 270 4.0 0.0 0.02 0.33 0.00 92 1055.3
20260831192305 62 270 6.0 0.0 0.02 0.33 0.00 92 1055.4
20260831192142 62 315 6.0 0.0 0.02 0.33 0.00 92 1055.3
20260831192035 62 337 5.0 0.0 0.02 0.33 0.00 92 1055.2
20260831191909 62 270 6.0 0.0 0.02 0.33 0.00 92 1055.3
20260831191754 62 315 0.0 0.0 0.02 0.33 0.00 92 1055.2
20260831191649 62 337 7.0 0.0 0.02 0.33 0.00 92 1055.2
20260831191519 62 315 11.0 0.0 0.02 0.33 0.00 92 1055.2
20260831191406 62 337 6.0 0.0 0.02 0.33 0.00 92 1055.2
20260831191252 62 315 8.0 0.0 0.02 0.33 0.00 92 1055.2
20260831191134 62 292 7.0 0.0 0.02 0.33 0.00 92 1055.2
20260831191026 62 292 5.0 0.0 0.02 0.33 0.00 92 1055.1
20260831190913 62 315 2.0 0.0 0.02 0.33 0.00 92 1055.1
20260831190801 62 270 6.0 0.0 0.02 0.33 0.00 92 1055.1
20260831190639 62 0 5.0 0.0 0.02 0.33 0.00 92 1055.1
20260831190520 62 315 3.0 0.0 0.02 0.33 0.00 92 1055.1
20260831190405 62 315 0.0 0.0 0.02 0.33 0.00 92 1055.1
20260831190253 62 292 6.0 0.0 0.02 0.33 0.00 92 1055.0
20260831190146 62 315 8.0 0.0 0.02 0.33 0.00 92 1055.0
20260831190033 62 315 6.0 0.0 0.02 0.33 0.00 92 1055.1
20260831185905 62 292 6.0 0.0 0.02 0.33 0.00 92 1055.0
20260831185800 62 292 0.0 0.0 0.02 0.33 0.00 92 1055.0
20260831185646 62 337 5.0 0.0 0.02 0.33 0.00 92 1055.0
20260831185525 62 292 4.0 0.0 0.02 0.33 0.00 92 1054.9
20260831185414 62 315 0.0 0.0 0.02 0.33 0.00 92 1054.8
20260831185309 62 315 4.0 0.0 0.02 0.33 0.00 92 1054.9
20260831185202 62 315 2.0 0.0 0.02 0.33 0.00 92 1054.9
20260831185049 62 315 11.0 0.0 0.00 0.31 0.00 91 1055.1
20260831184943 62 337 5.0 0.0 0.00 0.31 0.00 91 1054.9
20260831184837 62 315 11.0 0.0 0.00 0.31 0.00 91 1054.9
20260831184731 62 315 6.0 0.0 0.00 0.31 0.00 91 1054.8
20260831184625 62 292 9.0 0.0 0.00 0.31 0.00 91 1054.8
20260831184520 62 270 3.0 0.0 0.00 0.31 0.00 91 1054.8
20260831184406 62 315 6.0 0.0 0.00 0.31 0.00 91 1054.8
20260831184245 62 292 17.0 0.0 0.00 0.31 0.00 91 1054.7
20260831184139 62 292 9.0 0.0 0.00 0.31 0.00 91 1054.8
20260831184025 62 270 7.0 0.0 0.00 0.31 0.00 91 1054.6
20260831183917 62 315 6.0 0.0 0.04 0.31 0.00 91 1054.6
20260831183748 62 292 7.0 0.0 0.04 0.31 0.00 91 1054.6
20260831183636 62 292 8.0 0.0 0.04 0.31 0.00 91 1054.6
20260831183529 62 315 4.0 0.0 0.08 0.31 0.00 91 1054.5
20260831183423 62 0 2.0 0.0 0.08 0.31 0.00 91 1054.4
20260831183305 62 270 4.0 0.0 0.08 0.31 0.00 91 1054.4
20260831183157 62 225 3.0 0.0 0.10 0.31 0.00 91 1054.4
20260831183037 62 292 5.0 0.0 0.10 0.31 0.00 91 1054.4
20260831182931 62 337 1.0 0.0 0.10 0.31 0.00 91 1054.2
20260831182810 62 225 6.0 0.0 0.12 0.31 0.00 91 1054.3
20260831182648 62 315 7.0 0.0 0.12 0.31 0.00 91 1054.3
20260831182543 62 337 5.0 0.0 0.12 0.31 0.00 91 1054.3
20260831182436 62 247 10.0 0.0 0.12 0.31 0.00 91 1054.2
20260831182331 62 270 8.0 0.0 0.12 0.31 0.00 92 1054.2
20260831182225 62 315 7.0 0.0 0.12 0.31 0.00 92 1054.2
20260831182113 62 337 3.0 0.0 0.12 0.31 0.00 92 1054.2
20260831182007 62 292 10.0 0.0 0.12 0.31 0.00 92 1054.1
20260831181845 62 270 6.0 0.0 0.12 0.31 0.00 92 1054.2
20260831181733 62 315 7.0 0.0 0.12 0.31 0.00 92 1054.1
20260831181619 62 292 4.0 0.0 0.12 0.31 0.00 92 1054.1
20260831181507 62 315 13.0 0.0 0.12 0.31 0.00 92 1054.1
20260831181401 62 315 10.0 0.0 0.12 0.31 0.00 92 1054.1
20260831181250 62 315 13.0 0.0 0.12 0.31 0.00 92 1054.1
20260831181143 62 337 7.0 0.0 0.12 0.31 0.00 92 1054.1
20260831181022 62 292 3.0 0.0 0.12 0.31 0.00 92 1054.1
20260831180909 62 315 5.0 0.0 0.12 0.31 0.00 92 1054.1
20260831180755 62 292 7.0 0.0 0.12 0.31 0.00 92 1054.0
20260831180643 62 315 6.0 0.0 0.12 0.31 0.00 92 1054.0
20260831180539 61 247 9.0 0.0 0.12 0.31 0.00 92 1054.0
20260831180433 61 0 2.0 0.0 0.12 0.31 0.00 92 1054.0
20260831180328 61 337 4.0 0.0 0.12 0.31 0.00 92 1053.9
20260831180222 61 292 5.0 0.0 0.12 0.31 0.00 92 1053.9
20260831180111 61 315 10.0 0.0 0.12 0.31 0.00 92 1053.9
20260831175956 61 292 19.0 0.0 0.12 0.31 0.00 92 1054.0
20260831175835 61 337 6.0 0.0 0.12 0.31 0.00 92 1053.9
20260831175717 61 247 8.0 0.0 0.12 0.31 0.00 92 1053.9
20260831175609 61 270 7.0 0.0 0.12 0.31 0.00 92 1053.8
20260831175455 61 270 4.0 0.0 0.12 0.31 0.00 91 1053.8
20260831175334 61 292 0.0 0.0 0.12 0.31 0.00 91 1053.7
20260831175228 61 292 10.0 0.0 0.12 0.31 0.00 91 1053.8
20260831175116 61 292 6.0 0.0 0.12 0.31 0.00 91 1053.8
20260831174959 61 315 4.0 0.0 0.12 0.31 0.00 91 1053.8
20260831174846 61 270 5.0 0.0 0.12 0.31 0.00 91 1053.7
20260831174732 61 270 12.0 0.0 0.12 0.31 0.00 90 1053.6
20260831174620 61 315 7.0 0.0 0.12 0.31 0.00 90 1053.7
20260831174512 61 292 7.0 0.0 0.12 0.31 0.00 91 1053.7
20260831174350 61 225 5.0 0.0 0.10 0.29 0.00 91 1053.6
20260831174245 61 337 19.0 0.0 0.08 0.26 0.00 91 1053.7
20260831174138 61 315 5.0 0.0 0.08 0.26 0.00 90 1053.7
20260831174034 61 270 7.0 0.0 0.08 0.26 0.00 90 1053.6
20260831173928 61 247 9.0 0.0 0.08 0.24 0.00 90 1053.6
20260831173814 61 270 0.0 0.0 0.06 0.22 0.00 90 1053.6
20260831173702 61 247 6.0 0.0 0.06 0.22 0.00 89 1053.5
20260831173541 61 270 5.0 0.0 0.06 0.22 0.00 89 1053.5
20260831173436 61 225 11.0 0.0 0.06 0.22 0.00 89 1053.5
20260831173330 62 270 9.0 0.0 0.04 0.20 0.00 89 1053.6
20260831173209 62 315 7.0 0.0 0.04 0.20 0.00 89 1053.5
20260831173057 62 292 1.0 0.0 0.04 0.20 0.00 89 1053.5
20260831172950 62 292 2.0 0.0 0.02 0.18 0.00 89 1053.6
20260831172831 62 270 11.0 0.0 0.02 0.18 0.00 89 1053.5
20260831172724 62 202 9.0 0.0 0.02 0.18 0.00 89 1053.5
20260831172506 62 247 8.0 0.0 0.02 0.18 0.00 88 1053.4
20260831172339 62 247 8.0 0.0 0.02 0.18 0.00 88 1053.5
20260831172234 62 270 15.0 0.0 0.02 0.18 0.00 88 1053.5
20260831172121 62 292 7.0 0.0 0.02 0.18 0.00 88 1053.5
20260831172016 62 247 9.0 0.0 0.02 0.18 0.00 88 1053.4
20260831171911 62 337 9.0 0.0 0.02 0.18 0.00 88 1053.4
20260831171757 62 292 12.0 0.0 0.02 0.18 0.00 88 1053.4
20260831171651 62 270 5.0 0.0 0.02 0.18 0.00 88 1053.4
20260831171546 63 247 9.0 0.0 0.02 0.18 0.00 88 1053.3
20260831171433 63 292 9.0 0.0 0.02 0.18 0.00 89 1053.3
20260831171321 63 270 7.0 0.0 0.02 0.18 0.00 89 1053.3
20260831171214 63 337 7.0 0.0 0.02 0.18 0.00 89 1053.2
20260831171101 63 270 14.0 0.0 0.02 0.18 0.00 89 1053.3
20260831170940 63 270 15.0 0.0 0.02 0.18 0.00 89 1053.3
20260831170828 62 292 11.0 0.0 0.02 0.18 0.00 89 1053.2
20260831170705 62 292 6.0 0.0 0.02 0.18 0.00 90 1053.2
20260831170552 62 292 8.0 0.0 0.02 0.18 0.00 90 1053.2
20260831170423 62 270 10.0 0.0 0.02 0.18 0.00 90 1053.3
20260831170310 62 292 7.0 0.0 0.02 0.18 0.00 90 1053.3
20260831170205 62 247 7.0 0.0 0.02 0.18 0.00 90 1053.2
20260831170043 62 247 4.0 0.0 0.02 0.18 0.00 90 1053.4
20260831165923 62 315 11.0 0.0 0.02 0.18 0.00 90 1053.4
20260831165808 62 270 8.0 0.0 0.02 0.18 0.00 90 1053.3
20260831165639 62 247 14.0 0.0 0.02 0.18 0.00 89 1053.3
20260831165533 62 292 12.0 0.0 0.02 0.18 0.00 89 1053.4
20260831165428 62 270 5.0 0.0 0.02 0.18 0.00 89 1053.2
20260831165322 62 247 7.0 0.0 0.02 0.18 0.00 89 1053.4
20260831165155 62 270 5.0 0.0 0.04 0.18 0.00 89 1053.4
20260831165048 62 315 12.0 0.0 0.04 0.18 0.00 88 1053.4
20260831164935 62 247 11.0 0.0 0.04 0.18 0.00 88 1053.4
20260831164830 62 270 10.0 0.0 0.04 0.18 0.00 88 1053.3
20260831164710 62 270 6.0 0.0 0.08 0.18 0.00 88 1053.4
20260831164606 62 247 7.0 0.0 0.08 0.18 0.00 88 1053.3
20260831164459 62 225 6.0 0.0 0.08 0.18 0.00 87 1053.2
20260831164337 62 247 6.0 0.0 0.10 0.18 0.00 87 1053.3
20260831164218 62 270 8.0 0.0 0.08 0.16 0.00 86 1053.2
20260831164113 63 225 5.0 0.0 0.08 0.16 0.00 86 1053.2
20260831164007 63 292 8.0 0.0 0.08 0.16 0.00 86 1053.1
20260831163852 63 247 17.0 0.0 0.10 0.16 0.00 85 1053.1
20260831163746 63 292 6.0 0.0 0.10 0.16 0.00 84 1053.2
20260831163633 64 292 9.0 0.0 0.10 0.16 0.00 84 1053.0
20260831163528 64 292 12.0 0.0 0.10 0.16 0.00 84 1053.1
20260831163414 64 292 11.0 0.0 0.10 0.16 0.00 83 1053.1
20260831163255 64 292 6.0 0.0 0.10 0.16 0.00 83 1053.0
20260831163148 64 270 7.0 0.0 0.10 0.16 0.00 83 1053.1
20260831163035 64 270 11.0 0.0 0.10 0.16 0.00 83 1053.1
20260831162916 64 270 16.0 0.0 0.10 0.16 0.00 84 1053.0
20260831162801 64 270 8.0 0.0 0.10 0.16 0.00 84 1053.1
20260831162648 64 247 10.0 0.0 0.10 0.16 0.00 85 1053.1
20260831162541 64 292 5.0 0.0 0.10 0.16 0.00 85 1053.0
20260831162420 64 292 5.0 0.0 0.10 0.16 0.00 85 1053.0
20260831162258 64 270 6.0 0.0 0.10 0.16 0.00 85 1053.0
20260831162136 64 247 4.0 0.0 0.10 0.16 0.00 85 1053.0
20260831162030 64 292 8.0 0.0 0.10 0.16 0.00 85 1053.0
20260831161909 64 270 6.0 0.0 0.10 0.16 0.00 86 1053.0
20260831161803 64 247 5.0 0.0 0.10 0.16 0.00 86 1053.0
20260831161658 64 292 9.0 0.0 0.10 0.16 0.00 86 1053.0
20260831161552 63 270 11.0 0.0 0.10 0.16 0.00 86 1053.0
20260831161437 63 292 8.0 0.0 0.10 0.16 0.00 86 1053.0
20260831161326 63 270 14.0 0.0 0.10 0.16 0.00 86 1053.0
20260831161209 63 270 11.0 0.0 0.10 0.16 0.00 86 1053.0
20260831161059 63 270 15.0 0.0 0.10 0.16 0.00 86 1053.0
20260831160952 63 292 12.0 0.0 0.10 0.16 0.00 86 1052.9
20260831160838 63 247 11.0 0.0 0.10 0.16 0.00 87 1053.0
20260831160725 63 225 8.0 0.0 0.10 0.16 0.00 87 1053.0
20260831160620 63 247 4.0 0.0 0.10 0.16 0.00 87 1052.9
20260831160509 63 292 7.0 0.0 0.10 0.16 0.00 87 1052.9
20260831160402 63 315 10.0 0.0 0.10 0.16 0.00 87 1052.9
20260831160240 62 292 10.0 0.0 0.10 0.16 0.00 87 1052.9
20260831160128 62 270 9.0 0.0 0.10 0.16 0.00 87 1053.0
20260831160014 62 292 9.0 0.0 0.10 0.16 0.00 87 1052.9
20260831155853 62 247 6.0 0.0 0.10 0.16 0.00 87 1052.9
20260831155740 62 270 15.0 0.0 0.10 0.16 0.00 87 1052.8
20260831155626 62 315 3.0 0.0 0.10 0.16 0.00 86 1052.8
20260831155515 62 292 3.0 0.0 0.10 0.16 0.00 85 1052.9
20260831155408 62 292 9.0 0.0 0.10 0.16 0.00 85 1052.9
20260831155256 62 225 4.0 0.0 0.10 0.16 0.00 85 1052.9
20260831155142 62 247 5.0 0.0 0.08 0.14 0.00 84 1052.9
20260831155029 63 270 4.0 0.0 0.06 0.12 0.00 83 1052.9
20260831154915 63 270 5.0 0.0 0.06 0.12 0.00 82 1052.9
20260831154802 64 270 9.0 0.0 0.04 0.10 0.00 82 1052.9
20260831154641 64 270 9.0 0.0 0.04 0.10 0.00 82 1053.0
20260831154528 64 247 8.0 0.0 0.02 0.08 0.00 81 1052.9
20260831154424 64 247 3.0 0.0 0.02 0.08 0.00 81 1052.8
20260831154318 65 270 4.0 0.0 0.00 0.06 0.00 81 1052.7
20260831154213 64 225 0.0 0.0 0.00 0.06 0.00 81 1052.9
20260831154108 64 0 4.0 0.0 0.00 0.06 0.00 81 1052.7
20260831153938 64 247 5.0 0.0 0.00 0.06 0.00 81 1052.8
20260831153825 64 315 10.0 0.0 0.00 0.06 0.00 81 1052.6
20260831153720 64 292 6.0 0.0 0.00 0.06 0.00 81 1052.7
20260831153607 64 270 12.0 0.0 0.00 0.06 0.00 81 1052.7
20260831153446 64 247 14.0 0.0 0.00 0.06 0.00 81 1052.6
20260831153333 64 225 9.0 0.0 0.00 0.06 0.00 81 1052.5
20260831153212 64 270 6.0 0.0 0.00 0.06 0.00 81 1052.8
20260831153058 64 270 9.0 0.0 0.00 0.06 0.00 80 1052.6
20260831152945 64 292 0.0 0.0 0.00 0.06 0.00 80 1052.6
20260831152840 64 292 8.0 0.0 0.00 0.06 0.00 79 1052.7
20260831152735 64 135 0.0 0.0 0.00 0.06 0.00 79 1052.6
20260831152629 64 315 4.0 0.0 0.00 0.06 0.00 79 1052.5
20260831152522 64 292 3.0 0.0 0.00 0.06 0.00 79 1052.6
20260831152352 64 180 2.0 0.0 0.00 0.06 0.00 79 1052.6
20260831152239 64 247 9.0 0.0 0.00 0.06 0.00 78 1052.6
20260831152119 64 315 6.0 0.0 0.00 0.06 0.00 78 1052.4
20260831152004 64 270 4.0 0.0 0.00 0.06 0.00 78 1052.4
20260831151853 63 247 10.0 0.0 0.00 0.06 0.00 77 1052.6
20260831151738 63 270 6.0 0.0 0.00 0.06 0.00 76 1052.5
20260831151633 63 247 6.0 0.0 0.00 0.06 0.00 75 1052.5
20260831151512 64 225 9.0 0.0 0.00 0.06 0.00 74 1052.5
20260831151359 64 247 8.0 0.0 0.00 0.06 0.00 73 1052.5
20260831151245 64 247 8.0 0.0 0.00 0.06 0.00 73 1052.6
20260831151126 64 292 7.0 0.0 0.00 0.06 0.00 73 1052.7
20260831151022 65 225 9.0 0.0 0.00 0.06 0.00 73 1052.6
20260831150914 65 247 13.0 0.0 0.00 0.06 0.00 72 1052.6
20260831150800 65 247 15.0 0.0 0.00 0.06 0.00 72 1052.4
20260831150655 66 292 9.0 0.0 0.00 0.06 0.00 72 1052.5
20260831150541 66 270 6.0 0.0 0.00 0.06 0.00 71 1052.4
20260831150429 66 270 6.0 0.0 0.00 0.06 0.00 70 1052.5
20260831150315 67 247 11.0 0.0 0.00 0.06 0.00 68 1052.5
20260831150203 67 292 9.0 0.0 0.00 0.06 0.00 68 1052.5
20260831150057 67 247 8.0 0.0 0.00 0.06 0.00 69 1052.3
20260831145944 68 247 11.0 0.0 0.00 0.06 0.00 70 1052.3
20260831145834 68 270 6.0 0.0 0.00 0.06 0.00 70 1052.4
20260831145719 68 337 10.0 0.0 0.00 0.06 0.00 70 1052.3
20260831145613 68 292 6.0 0.0 0.00 0.06 0.00 70 1052.4
20260831145459 68 247 6.0 0.0 0.00 0.06 0.00 69 1052.3
20260831145339 68 270 6.0 0.0 0.00 0.06 0.00 69 1052.3
20260831145225 69 315 8.0 0.0 0.00 0.06 0.00 69 1052.3
20260831145106 69 337 10.0 0.0 0.00 0.06 0.00 69 1052.3
20260831144958 68 247 15.0 0.0 0.00 0.06 0.00 69 1052.4
20260831144839 68 270 9.0 0.0 0.00 0.06 0.00 69 1052.4
20260831144734 68 247 11.0 0.0 0.00 0.06 0.00 69 1052.3
20260831144620 68 270 4.0 0.0 0.00 0.06 0.00 69 1052.2
20260831144515 68 270 7.0 0.0 0.00 0.06 0.00 68 1052.2
20260831144353 68 315 3.0 0.0 0.00 0.06 0.00 68 1052.2
20260831144243 69 292 11.0 0.0 0.00 0.06 0.00 68 1052.2
20260831144136 69 270 13.0 0.0 0.00 0.06 0.00 68 1052.1
20260831144031 69 292 5.0 0.0 0.00 0.06 0.00 69 1052.3
20260831143918 69 270 6.0 0.0 0.00 0.06 0.00 69 1052.2
20260831143812 68 270 4.0 0.0 0.00 0.06 0.00 69 1052.2
20260831143651 68 337 4.0 0.0 0.00 0.06 0.00 69 1052.2
20260831143521 68 270 8.0 0.0 0.00 0.06 0.00 69 1052.1
20260831143408 68 270 13.0 0.0 0.00 0.06 0.00 70 1052.1
20260831143248 68 247 5.0 0.0 0.00 0.06 0.00 69 1052.1
20260831143136 69 270 6.0 0.0 0.00 0.06 0.00 69 1052.1
20260831143022 69 247 6.0 0.0 0.00 0.06 0.00 69 1052.0
20260831142917 69 247 5.0 0.0 0.00 0.06 0.00 68 1052.1
20260831142811 69 247 13.0 0.0 0.00 0.06 0.00 69 1052.1
20260831142700 69 270 13.0 0.0 0.00 0.06 0.00 69 1052.1
20260831142555 69 270 7.0 0.0 0.00 0.06 0.00 69 1052.0
20260831142448 69 270 5.0 0.0 0.00 0.06 0.00 70 1052.0
20260831142335 69 270 6.0 0.0 0.00 0.06 0.00 69 1052.1
20260831142230 69 225 6.0 0.0 0.00 0.06 0.00 69 1052.0
20260831142109 69 270 0.0 0.0 0.00 0.06 0.00 69 1052.0
20260831141955 69 292 6.0 0.0 0.00 0.06 0.00 68 1052.1
20260831141843 69 315 15.0 0.0 0.00 0.06 0.00 67 1052.1
20260831141737 69 270 10.0 0.0 0.00 0.06 0.00 67 1052.1
20260831141615 70 247 8.0 0.0 0.00 0.06 0.00 67 1052.1
20260831141455 70 270 11.0 0.0 0.00 0.06 0.00 68 1052.0
20260831141350 70 270 9.0 0.0 0.00 0.06 0.00 69 1052.1
20260831141245 70 202 4.0 0.0 0.00 0.06 0.00 69 1052.0
20260831141124 70 270 10.0 0.0 0.00 0.06 0.00 69 1052.1
20260831141010 70 202 7.0 0.0 0.00 0.06 0.00 69 1052.0
20260831140858 70 270 6.0 0.0 0.00 0.06 0.00 69 1052.1
20260831140745 70 225 6.0 0.0 0.00 0.06 0.00 68 1052.0
20260831140639 70 202 7.0 0.0 0.00 0.06 0.00 68 1052.0
20260831140526 70 247 7.0 0.0 0.00 0.06 0.00 68 1052.0
20260831140416 70 270 4.0 0.0 0.00 0.06 0.00 68 1052.0
20260831140308 70 225 7.0 0.0 0.00 0.06 0.00 67 1052.0
20260831140155 70 247 6.0 0.0 0.00 0.06 0.00 67 1052.0
20260831140050 70 247 6.0 0.0 0.00 0.06 0.00 67 1051.9
20260831135928 70 315 11.0 0.0 0.00 0.06 0.00 68 1051.9
20260831135815 70 315 0.0 0.0 0.00 0.06 0.00 68 1051.9
20260831135654 70 247 0.0 0.0 0.00 0.06 0.00 68 1051.9
20260831135534 70 270 4.0 0.0 0.00 0.06 0.00 67 1052.0
20260831135428 70 202 4.0 0.0 0.00 0.06 0.00 67 1051.9
20260831135314 70 270 8.0 0.0 0.00 0.06 0.00 68 1052.0
20260831135202 70 270 4.0 0.0 0.00 0.06 0.00 69 1052.1
20260831135049 69 225 3.0 0.0 0.00 0.06 0.00 68 1051.9
20260831134936 69 247 11.0 0.0 0.00 0.06 0.00 68 1052.0
20260831134822 69 180 6.0 0.0 0.00 0.06 0.00 68 1052.0
20260831134709 69 225 0.0 0.0 0.00 0.06 0.00 68 1051.9
20260831134557 69 225 2.0 0.0 0.00 0.06 0.00 68 1052.0
20260831134453 69 337 0.0 0.0 0.00 0.06 0.00 68 1051.9
20260831134338 69 202 7.0 0.0 0.00 0.06 0.00 68 1052.0
20260831134225 69 202 7.0 0.0 0.00 0.06 0.00 68 1052.1
20260831134121 69 225 7.0 0.0 0.00 0.06 0.00 67 1052.2
20260831134007 69 270 9.0 0.0 0.00 0.06 0.00 67 1052.1
20260831133846 69 270 12.0 0.0 0.00 0.06 0.00 67 1052.0
20260831133741 69 315 9.0 0.0 0.00 0.06 0.00 68 1052.1
20260831133636 69 247 6.0 0.0 0.00 0.06 0.00 68 1052.1
20260831133523 69 292 10.0 0.0 0.00 0.06 0.00 68 1052.0
20260831133416 69 270 10.0 0.0 0.00 0.06 0.00 68 1052.0
20260831133257 69 247 6.0 0.0 0.00 0.06 0.00 68 1052.1
20260831133151 69 270 6.0 0.0 0.00 0.06 0.00 68 1051.9
20260831133030 69 202 4.0 0.0 0.00 0.06 0.00 69 1051.9
20260831132925 69 202 6.0 0.0 0.00 0.06 0.00 69 1052.0
20260831132820 69 225 6.0 0.0 0.00 0.06 0.00 69 1051.9
20260831132716 69 225 6.0 0.0 0.00 0.06 0.00 69 1052.0
20260831132610 69 202 0.0 0.0 0.00 0.06 0.00 69 1051.9
20260831132505 68 270 9.0 0.0 0.00 0.06 0.00 69 1051.9
20260831132352 68 202 17.0 0.0 0.00 0.06 0.00 69 1051.9
20260831132240 68 270 7.0 0.0 0.00 0.06 0.00 69 1051.9
20260831132135 68 270 4.0 0.0 0.00 0.06 0.00 69 1051.9
20260831132029 68 270 7.0 0.0 0.00 0.06 0.00 69 1052.0
20260831131925 68 247 2.0 0.0 0.00 0.06 0.00 69 1051.9
20260831131819 68 270 6.0 0.0 0.00 0.06 0.00 69 1051.9
20260831131713 68 247 6.0 0.0 0.00 0.06 0.00 69 1051.9
20260831131600 68 270 3.0 0.0 0.00 0.06 0.00 69 1051.9
20260831131447 68 247 0.0 0.0 0.00 0.06 0.00 68 1051.9
20260831131326 68 270 0.0 0.0 0.00 0.06 0.00 68 1052.0
20260831131213 68 247 6.0 0.0 0.00 0.06 0.00 67 1051.9
20260831131059 68 270 5.0 0.0 0.00 0.06 0.00 66 1051.9
20260831130930 68 247 11.0 0.0 0.00 0.06 0.00 67 1051.9
20260831130817 68 270 4.0 0.0 0.00 0.06 0.00 67 1052.0
20260831130713 69 292 4.0 0.0 0.00 0.06 0.00 67 1051.9
20260831130607 69 270 9.0 0.0 0.00 0.06 0.00 69 1051.9
20260831130439 68 180 11.0 0.0 0.00 0.06 0.00 70 1051.9
20260831130334 68 225 4.0 0.0 0.00 0.06 0.00 71 1051.9
20260831130228 68 225 0.0 0.0 0.00 0.06 0.00 72 1051.9
20260831130059 68 225 8.0 0.0 0.00 0.06 0.00 73 1051.9
20260831125952 68 247 9.0 0.0 0.00 0.06 0.00 73 1051.9
20260831125839 68 270 6.0 0.0 0.00 0.06 0.00 73 1051.9
20260831125726 68 270 5.0 0.0 0.00 0.06 0.00 73 1051.9
20260831125613 68 270 5.0 0.0 0.00 0.06 0.00 74 1051.9
20260831125459 68 202 5.0 0.0 0.00 0.06 0.00 75 1051.9
20260831125332 68 247 4.0 0.0 0.00 0.06 0.00 75 1051.8
20260831125218 67 247 5.0 0.0 0.00 0.06 0.00 75 1051.8
20260831125113 67 247 1.0 0.0 0.00 0.06 0.00 75 1051.8
20260831125002 67 180 0.0 0.0 0.00 0.06 0.00 75 1051.8
20260831124855 67 247 8.0 0.0 0.00 0.06 0.00 75 1051.8
20260831124742 67 247 5.0 0.0 0.00 0.06 0.00 75 1051.8
20260831124637 67 225 1.0 0.0 0.00 0.06 0.00 77 1051.9
20260831124531 67 270 8.0 0.0 0.00 0.06 0.00 77 1051.8
20260831124410 67 247 0.0 0.0 0.00 0.06 0.00 78 1051.8
20260831124259 67 292 6.0 0.0 0.00 0.06 0.00 78 1051.8
20260831124150 66 270 4.0 0.0 0.00 0.06 0.00 77 1051.8
20260831124038 66 292 5.0 0.0 0.00 0.06 0.00 77 1051.8
20260831123908 66 202 11.0 0.0 0.00 0.06 0.00 77 1051.8
20260831123755 66 292 11.0 0.0 0.00 0.06 0.00 77 1051.8
20260831123641 66 202 5.0 0.0 0.00 0.06 0.00 77 1051.8
20260831123522 65 180 0.0 0.0 0.00 0.06 0.00 77 1051.8
20260831123417 65 202 6.0 0.0 0.00 0.06 0.00 77 1051.8
20260831123310 65 202 5.0 0.0 0.00 0.06 0.00 77 1051.8
20260831123149 65 247 9.0 0.0 0.00 0.06 0.00 77 1051.8
20260831123028 65 180 6.0 0.0 0.00 0.06 0.00 77 1051.8
20260831122915 65 202 7.0 0.0 0.00 0.06 0.00 77 1051.7
20260831122756 65 202 7.0 0.0 0.00 0.06 0.00 77 1051.8
20260831122642 65 202 14.0 0.0 0.00 0.06 0.00 77 1051.8
20260831122538 65 202 0.0 0.0 0.00 0.06 0.00 76 1051.8
20260831122431 64 225 5.0 0.0 0.00 0.06 0.00 76 1051.8
20260831122318 64 180 6.0 0.0 0.00 0.06 0.00 76 1051.8
20260831122156 64 225 7.0 0.0 0.00 0.06 0.00 78 1051.7
20260831122036 64 180 6.0 0.0 0.00 0.06 0.00 78 1051.7
20260831121924 64 202 9.0 0.0 0.00 0.06 0.00 78 1051.7
20260831121809 64 202 6.0 0.0 0.00 0.06 0.00 78 1051.7
20260831121656 64 202 9.0 0.0 0.00 0.06 0.00 78 1051.6
20260831121543 63 180 7.0 0.0 0.00 0.06 0.00 78 1051.6
20260831121438 63 157 8.0 0.0 0.00 0.06 0.00 79 1051.5
20260831121333 63 202 3.0 0.0 0.00 0.06 0.00 79 1051.6
20260831121220 63 202 4.0 0.0 0.00 0.06 0.00 79 1051.6
20260831121112 63 202 1.0 0.0 0.00 0.06 0.00 78 1051.6
20260831121001 63 247 4.0 0.0 0.00 0.06 0.00 78 1051.6
20260831120853 63 225 3.0 0.0 0.00 0.06 0.00 78 1051.6
20260831120739 63 180 8.0 0.0 0.00 0.06 0.00 78 1051.6
20260831120626 63 202 10.0 0.0 0.00 0.06 0.00 78 1051.7
20260831120520 63 180 9.0 0.0 0.00 0.06 0.00 78 1051.8
20260831120357 63 157 13.0 0.0 0.00 0.06 0.00 77 1051.8
20260831120235 63 225 9.0 0.0 0.00 0.06 0.00 76 1051.8
20260831120124 64 202 4.0 0.0 0.00 0.06 0.00 76 1051.8
20260831120017 64 202 0.0 0.0 0.00 0.06 0.00 75 1051.8
20260831115859 64 202 5.0 0.0 0.00 0.06 0.00 75 1051.8
20260831115752 65 225 6.0 0.0 0.00 0.06 0.00 74 1051.8
20260831115630 65 225 3.0 0.0 0.00 0.06 0.00 74 1051.8
20260831115509 66 292 11.0 0.0 0.00 0.06 0.00 76 1051.8
20260831115356 66 247 5.0 0.0 0.00 0.06 0.00 76 1051.8
20260831115242 66 202 5.0 0.0 0.00 0.06 0.00 76 1051.8
20260831115121 67 225 4.0 0.0 0.00 0.06 0.00 75 1051.7
20260831115011 67 225 9.0 0.0 0.00 0.06 0.00 75 1051.7
20260831114905 67 180 15.0 0.0 0.00 0.06 0.00 73 1051.7
20260831114757 67 202 17.0 0.0 0.00 0.06 0.00 72 1051.6
20260831114636 68 247 9.0 0.0 0.00 0.06 0.00 72 1051.5
20260831114523 68 247 11.0 0.0 0.00 0.06 0.00 72 1051.4
20260831114409 68 270 6.0 0.0 0.00 0.06 0.00 71 1051.4
20260831114248 68 202 5.0 0.0 0.00 0.06 0.00 71 1051.4
20260831114135 68 225 16.0 0.0 0.00 0.06 0.00 71 1051.4
20260831114014 68 202 8.0 0.0 0.00 0.06 0.00 71 1051.4
20260831113901 68 202 17.0 0.0 0.00 0.06 0.00 70 1051.4
20260831113750 68 202 6.0 0.0 0.00 0.06 0.00 70 1051.3
20260831113643 69 180 6.0 0.0 0.00 0.06 0.00 70 1051.4
20260831113529 69 180 4.0 0.0 0.00 0.06 0.00 70 1051.3
20260831113410 69 202 11.0 0.0 0.00 0.06 0.00 70 1051.3
20260831113255 69 247 4.0 0.0 0.00 0.06 0.00 69 1051.3
20260831113142 69 202 7.0 0.0 0.00 0.06 0.00 69 1051.4
20260831113029 69 225 14.0 0.0 0.00 0.06 0.00 68 1051.3
20260831112908 70 202 2.0 0.0 0.00 0.06 0.00 67 1051.3
20260831112748 70 202 14.0 0.0 0.00 0.06 0.00 66 1051.3
20260831112635 71 315 7.0 0.0 0.00 0.06 0.00 66 1051.2
20260831112530 71 180 4.0 0.0 0.00 0.06 0.00 65 1051.2
20260831112425 71 202 7.0 0.0 0.00 0.06 0.00 64 1051.2
20260831112310 71 292 0.0 0.0 0.00 0.06 0.00 62 1051.2
20260831112157 72 225 8.0 0.0 0.00 0.06 0.00 62 1051.2
20260831112044 73 270 7.0 0.0 0.00 0.06 0.00 61 1051.2
20260831111930 73 180 6.0 0.0 0.00 0.06 0.00 60 1051.2
20260831111811 74 135 9.0 0.0 0.00 0.06 0.00 60 1051.2
20260831111650 74 202 19.0 0.0 0.00 0.06 0.00 61 1051.2
20260831111545 75 225 14.0 0.0 0.00 0.06 0.00 61 1051.2
20260831111433 74 247 7.0 0.0 0.00 0.06 0.00 61 1051.2
20260831111327 74 247 12.0 0.0 0.00 0.06 0.00 62 1051.2
20260831111214 74 247 7.0 0.0 0.00 0.06 0.00 62 1051.3
20260831111102 74 247 5.0 0.0 0.00 0.06 0.00 63 1051.2
20260831110955 74 180 8.0 0.0 0.00 0.06 0.00 63 1051.2
20260831110841 74 270 3.0 0.0 0.00 0.06 0.00 61 1051.2
20260831110720 75 157 14.0 0.0 0.00 0.06 0.00 61 1051.3
20260831110559 75 180 6.0 0.0 0.00 0.06 0.00 61 1051.2
20260831110438 75 202 11.0 0.0 0.00 0.06 0.00 61 1051.2
20260831110312 75 202 7.0 0.0 0.00 0.06 0.00 61 1051.2
20260831110205 75 225 8.0 0.0 0.00 0.06 0.00 62 1051.2
20260831110052 75 247 4.0 0.0 0.00 0.06 0.00 62 1051.2
20260831105939 75 180 10.0 0.0 0.00 0.06 0.00 62 1051.2
20260831105826 75 270 12.0 0.0 0.00 0.06 0.00 63 1051.2
20260831105712 75 270 4.0 0.0 0.00 0.06 0.00 61 1051.2
20260831105558 75 247 13.0 0.0 0.00 0.06 0.00 63 1051.3
20260831105439 75 270 6.0 0.0 0.00 0.06 0.00 64 1051.2
20260831105332 75 225 10.0 0.0 0.00 0.06 0.00 64 1051.2
20260831105212 75 225 8.0 0.0 0.00 0.06 0.00 63 1051.2
20260831105057 75 292 9.0 0.0 0.00 0.06 0.00 64 1051.3
20260831104945 75 292 5.0 0.0 0.00 0.06 0.00 64 1051.3
20260831104834 74 180 7.0 0.0 0.00 0.06 0.00 64 1051.4
20260831104727 74 247 3.0 0.0 0.00 0.06 0.00 65 1051.4
20260831104614 73 225 7.0 0.0 0.00 0.06 0.00 66 1051.3
20260831104509 73 180 8.0 0.0 0.00 0.06 0.00 65 1051.3
20260831104355 73 247 6.0 0.0 0.00 0.06 0.00 66 1051.4
20260831104237 73 225 15.0 0.0 0.00 0.06 0.00 66 1051.3
20260831104129 73 202 19.0 0.0 0.00 0.06 0.00 66 1051.3
20260831104016 73 180 9.0 0.0 0.00 0.06 0.00 68 1051.2
20260831103911 73 247 3.0 0.0 0.00 0.06 0.00 68 1051.4
20260831103752 73 180 4.0 0.0 0.00 0.06 0.00 68 1051.2
20260831103645 73 247 7.0 0.0 0.00 0.06 0.00 69 1051.2
20260831103534 73 202 5.0 0.0 0.00 0.06 0.00 68 1051.4
20260831103426 73 225 4.0 0.0 0.00 0.06 0.00 67 1051.4
20260831103313 73 157 10.0 0.0 0.00 0.06 0.00 68 1051.4
20260831103153 73 247 6.0 0.0 0.00 0.06 0.00 69 1051.3
20260831103031 73 180 7.0 0.0 0.00 0.06 0.00 68 1051.5
20260831102910 73 225 6.0 0.0 0.00 0.06 0.00 68 1051.5
20260831102757 72 225 8.0 0.0 0.00 0.06 0.00 68 1051.5
20260831102635 72 292 0.0 0.0 0.00 0.06 0.00 69 1051.5
20260831102517 72 225 7.0 0.0 0.00 0.06 0.00 69 1051.5
20260831102410 72 202 8.0 0.0 0.00 0.06 0.00 68 1051.4
20260831102257 72 202 17.0 0.0 0.00 0.06 0.00 68 1051.5
20260831102143 72 180 6.0 0.0 0.00 0.06 0.00 69 1051.4
20260831102022 71 180 5.0 0.0 0.00 0.06 0.00 72 1051.5
20260831101909 71 180 6.0 0.0 0.00 0.06 0.00 73 1051.4
20260831101741 71 247 16.0 0.0 0.00 0.06 0.00 73 1051.5
20260831101633 71 157 6.0 0.0 0.00 0.06 0.00 74 1051.5
20260831101519 71 180 7.0 0.0 0.00 0.06 0.00 75 1051.4
20260831101358 71 270 0.0 0.0 0.00 0.06 0.00 75 1051.5
20260831101245 71 247 3.0 0.0 0.00 0.06 0.00 75 1051.5
20260831101133 70 225 13.0 0.0 0.00 0.06 0.00 75 1051.5
20260831101027 70 225 2.0 0.0 0.00 0.06 0.00 74 1051.6
20260831100922 70 180 9.0 0.0 0.00 0.06 0.00 72 1051.6
20260831100816 70 270 4.0 0.0 0.00 0.06 0.00 71 1051.5
20260831100710 70 225 12.0 0.0 0.00 0.06 0.00 71 1051.6
20260831100559 70 225 6.0 0.0 0.00 0.06 0.00 70 1051.5
20260831100454 71 225 15.0 0.0 0.00 0.06 0.00 70 1051.5
20260831100338 71 247 3.0 0.0 0.00 0.06 0.00 70 1051.6
20260831100217 71 247 8.0 0.0 0.00 0.06 0.00 71 1051.7
20260831100050 71 247 8.0 0.0 0.00 0.06 0.00 71 1051.6
20260831095943 71 202 7.0 0.0 0.00 0.06 0.00 71 1051.7
20260831095833 71 180 15.0 0.0 0.00 0.06 0.00 71 1051.7
20260831095726 71 157 6.0 0.0 0.00 0.06 0.00 70 1051.7
20260831095620 71 225 9.0 0.0 0.00 0.06 0.00 71 1051.7
20260831095516 71 180 8.0 0.0 0.00 0.06 0.00 71 1051.7
20260831095410 71 180 6.0 0.0 0.00 0.06 0.00 71 1051.6
20260831095258 71 225 10.0 0.0 0.00 0.06 0.00 71 1051.7
20260831095151 71 225 7.0 0.0 0.00 0.06 0.00 71 1051.6
20260831095031 71 202 6.0 0.0 0.00 0.06 0.00 70 1051.7
20260831094919 71 202 8.0 0.0 0.00 0.06 0.00 70 1051.7
20260831094805 71 270 10.0 0.0 0.00 0.06 0.00 70 1051.6
20260831094653 71 180 8.0 0.0 0.00 0.06 0.00 70 1051.7
20260831094546 71 225 16.0 0.0 0.00 0.06 0.00 72 1051.8
20260831094425 71 225 5.0 0.0 0.00 0.06 0.00 71 1051.8
20260831094303 71 270 6.0 0.0 0.00 0.06 0.00 72 1051.8
20260831094153 71 202 11.0 0.0 0.00 0.06 0.00 72 1051.8
20260831094047 70 202 5.0 0.0 0.00 0.06 0.00 72 1051.8
20260831093941 70 247 7.0 0.0 0.00 0.06 0.00 72 1051.9
20260831093838 70 180 8.0 0.0 0.00 0.06 0.00 71 1051.8
20260831093730 70 180 11.0 0.0 0.00 0.06 0.00 70 1051.9
20260831093609 71 225 6.0 0.0 0.00 0.06 0.00 70 1051.8
20260831093458 71 202 6.0 0.0 0.00 0.06 0.00 69 1051.8
20260831093351 71 247 5.0 0.0 0.00 0.06 0.00 69 1051.8
20260831093229 72 270 7.0 0.0 0.00 0.06 0.00 68 1051.8
20260831093100 72 157 6.0 0.0 0.00 0.06 0.00 68 1051.8
20260831092947 72 225 4.0 0.0 0.00 0.06 0.00 70 1051.7
20260831092842 71 202 5.0 0.0 0.00 0.06 0.00 72 1051.7
20260831092728 71 202 13.0 0.0 0.00 0.06 0.00 72 1051.7
20260831092607 70 247 0.0 0.0 0.00 0.06 0.00 73 1051.7
20260831092453 70 202 9.0 0.0 0.00 0.06 0.00 74 1051.8
20260831092339 70 247 8.0 0.0 0.00 0.06 0.00 73 1051.7
20260831092226 69 180 6.0 0.0 0.00 0.06 0.00 73 1051.7
20260831092115 69 225 4.0 0.0 0.00 0.06 0.00 73 1051.7
20260831092008 70 202 6.0 0.0 0.00 0.06 0.00 71 1051.7
20260831091854 70 180 9.0 0.0 0.00 0.06 0.00 71 1051.7
20260831091742 70 202 7.0 0.0 0.00 0.06 0.00 70 1051.7
20260831091628 71 180 8.0 0.0 0.00 0.06 0.00 69 1051.6
20260831091506 71 180 6.0 0.0 0.00 0.06 0.00 69 1051.7
20260831091346 71 180 15.0 0.0 0.00 0.06 0.00 68 1051.7
20260831091226 72 202 13.0 0.0 0.00 0.06 0.00 67 1051.7
20260831091121 73 180 6.0 0.0 0.00 0.06 0.00 67 1051.7
20260831091015 73 225 6.0 0.0 0.00 0.06 0.00 67 1051.6
20260831090846 73 157 5.0 0.0 0.00 0.06 0.00 66 1051.6
20260831090733 74 225 12.0 0.0 0.00 0.06 0.00 66 1051.5
20260831090629 74 180 8.0 0.0 0.00 0.06 0.00 66 1051.5
20260831090523 74 180 8.0 0.0 0.00 0.06 0.00 65 1051.5
20260831090419 74 247 5.0 0.0 0.00 0.06 0.00 66 1051.4
20260831090313 74 225 7.0 0.0 0.00 0.06 0.00 66 1051.4
20260831090209 74 202 10.0 0.0 0.00 0.06 0.00 66 1051.4
20260831090103 74 225 6.0 0.0 0.00 0.06 0.00 65 1051.4
20260831085957 74 202 10.0 0.0 0.00 0.08 0.00 66 1051.4
20260831085839 74 247 10.0 0.0 0.00 0.08 0.00 67 1051.4
20260831085731 74 180 4.0 0.0 0.00 0.08 0.00 67 1051.4
20260831085610 74 157 8.0 0.0 0.00 0.08 0.00 66 1051.3
20260831085450 74 202 6.0 0.0 0.00 0.08 0.00 67 1051.4
20260831085345 74 225 17.0 0.0 0.00 0.08 0.00 66 1051.3
20260831085223 74 180 5.0 0.0 0.00 0.08 0.00 67 1051.3
20260831085110 74 202 7.0 0.0 0.00 0.08 0.00 68 1051.4
20260831084941 73 202 8.0 0.0 0.00 0.08 0.00 69 1051.3
20260831084819 73 225 8.0 0.0 0.00 0.08 0.00 69 1051.4
20260831084658 73 247 6.0 0.0 0.00 0.08 0.00 69 1051.4
20260831084548 73 202 6.0 0.0 0.00 0.08 0.00 70 1051.4
20260831084441 73 247 5.0 0.0 0.00 0.08 0.00 70 1051.4
20260831084319 73 292 9.0 0.0 0.00 0.08 0.00 71 1051.4
20260831084207 73 225 5.0 0.0 0.00 0.08 0.00 72 1051.3
20260831084100 73 270 10.0 0.0 0.00 0.08 0.00 73 1051.4
20260831083948 72 225 11.0 0.0 0.00 0.08 0.00 74 1051.4
20260831083834 71 180 8.0 0.0 0.00 0.08 0.00 76 1051.3
20260831083713 71 180 3.0 0.0 0.00 0.08 0.00 77 1051.4
20260831083553 70 225 6.0 0.0 0.00 0.08 0.00 77 1051.3
20260831083442 70 202 7.0 0.0 0.00 0.08 0.00 77 1051.3
20260831083336 69 202 7.0 0.0 0.00 0.08 0.00 78 1051.4
20260831083215 69 180 16.0 0.0 0.00 0.08 0.00 79 1051.4
20260831083054 69 202 9.0 0.0 0.00 0.08 0.00 79 1051.4
20260831082923 69 292 9.0 0.0 0.00 0.08 0.00 78 1051.4
20260831082759 69 202 6.0 0.0 0.02 0.08 0.00 79 1051.4
20260831082645 69 157 7.0 0.0 0.02 0.08 0.00 79 1051.3
20260831082530 68 247 4.0 0.0 0.02 0.08 0.00 80 1051.4
20260831082407 68 225 6.0 0.0 0.02 0.08 0.00 80 1051.3
20260831082254 68 270 6.0 0.0 0.02 0.08 0.00 80 1051.3
20260831082132 68 225 9.0 0.0 0.02 0.08 0.00 79 1051.4
20260831082009 68 225 9.0 0.0 0.02 0.08 0.00 79 1051.3
20260831081859 68 135 2.0 0.0 0.02 0.08 0.00 80 1051.3
20260831081753 68 180 9.0 0.0 0.02 0.08 0.00 80 1051.5
20260831081631 68 202 5.0 0.0 0.02 0.08 0.00 81 1051.4
20260831081511 67 202 8.0 0.0 0.02 0.08 0.00 80 1051.3
20260831081358 67 180 8.0 0.0 0.02 0.08 0.00 81 1051.4
20260831081243 68 180 10.0 0.0 0.02 0.08 0.00 81 1051.4
20260831081114 67 135 3.0 0.0 0.02 0.08 0.00 81 1051.5
20260831081001 67 225 6.0 0.0 0.02 0.08 0.00 81 1051.4
20260831080848 67 202 4.0 0.0 0.02 0.08 0.00 81 1051.5
20260831080728 67 180 16.0 0.0 0.02 0.08 0.00 81 1051.5
20260831080622 67 247 13.0 0.0 0.02 0.08 0.00 80 1051.5
20260831080503 67 157 14.0 0.0 0.02 0.08 0.00 80 1051.5
20260831080355 67 180 12.0 0.0 0.02 0.08 0.00 80 1051.6
20260831080235 67 202 7.0 0.0 0.02 0.08 0.00 80 1051.6
20260831080121 67 157 11.0 0.0 0.02 0.08 0.00 80 1051.6
20260831075953 67 157 13.0 0.0 0.02 0.08 0.00 80 1051.6
20260831075846 67 225 11.0 0.0 0.02 0.08 0.00 80 1051.4
20260831075740 67 202 8.0 0.0 0.02 0.08 0.00 80 1051.5
20260831075626 68 157 16.0 0.0 0.02 0.08 0.00 79 1051.6
20260831075521 68 202 8.0 0.0 0.02 0.08 0.00 79 1051.5
20260831075414 68 157 8.0 0.0 0.02 0.08 0.00 78 1051.6
20260831075308 68 225 6.0 0.0 0.02 0.08 0.00 78 1051.6
20260831075148 68 180 7.0 0.0 0.02 0.08 0.00 77 1051.6
20260831075043 69 225 12.0 0.0 0.02 0.08 0.00 77 1051.6
20260831074930 69 247 6.0 0.0 0.02 0.08 0.00 76 1051.6
20260831074816 70 225 11.0 0.0 0.02 0.08 0.00 75 1051.6
20260831074654 70 202 9.0 0.0 0.02 0.08 0.00 76 1051.6
20260831074533 70 180 2.0 0.0 0.02 0.08 0.00 77 1051.6
20260831074404 70 202 9.0 0.0 0.02 0.08 0.00 76 1051.5
20260831074251 70 202 12.0 0.0 0.02 0.08 0.00 75 1051.6
20260831074138 71 180 10.0 0.0 0.02 0.08 0.00 74 1051.5
20260831074018 71 202 20.0 0.0 0.02 0.08 0.00 75 1051.6
20260831073912 71 202 0.0 0.0 0.02 0.08 0.00 79 1051.6
20260831073404 67 180 114.0 0.0 0.02 0.08 0.00 82 1051.5
20260831072741 67 180 114.0 0.0 0.00 0.06 0.00 82 1051.6
20260831072111 68 180 114.0 0.0 0.00 0.06 0.00 81 1051.5
20260831071506 69 180 114.0 0.0 0.00 0.06 0.00 81 1051.3
20260831070900 68 180 114.0 0.0 0.00 0.06 0.00 88 1051.3
20260831070237 65 180 114.0 0.0 0.00 0.06 0.00 92 1051.4
20260831065615 64 180 114.0 0.0 0.00 0.06 0.00 92 1051.6
20260831065030 63 180 114.0 0.0 0.00 0.06 0.00 92 1051.6
20260831064416 63 180 114.0 0.0 0.00 0.06 0.00 93 1051.6
20260831063819 62 180 114.0 0.0 0.00 0.06 0.00 93 1051.6
20260831063221 62 180 114.0 0.0 0.00 0.06 0.00 94 1051.6
20260831062608 62 180 114.0 0.0 0.00 0.06 0.00 94 1051.5
20260831061953 62 180 114.0 0.0 0.00 0.06 0.00 94 1051.6
20260831061358 63 180 114.0 0.0 0.00 0.06 0.00 94 1051.6
20260831060750 63 180 114.0 0.0 0.00 0.06 0.00 94 1051.7
20260831060145 63 180 114.0 0.0 0.00 0.06 0.00 94 1051.7
20260831055541 64 180 114.0 0.0 0.00 0.06 0.00 94 1051.7
20260831054943 63 180 114.0 0.0 0.00 0.06 0.00 94 1051.7
20260831054330 61 180 114.0 0.0 0.00 0.06 0.00 94 1051.4
20260831053730 61 180 114.0 0.0 0.00 0.06 0.00 95 1051.7
20260831053133 61 180 114.0 0.0 0.00 0.06 0.00 95 1051.7
20260831052528 61 180 114.0 0.0 0.00 0.06 0.00 95 1051.6
20260831051930 61 180 114.0 0.0 0.00 0.06 0.00 95 1051.7
20260831051316 61 180 114.0 0.0 0.00 0.06 0.00 95 1051.8
20260831050720 61 180 114.0 0.0 0.00 0.06 0.00 95 1051.8
20260831050113 61 180 114.0 0.0 0.00 0.06 0.00 95 1051.8
20260831045459 61 180 114.0 0.0 0.00 0.06 0.00 95 1051.7
20260831044903 61 180 114.0 0.0 0.00 0.06 0.00 95 1051.5
20260831044256 61 180 114.0 0.0 0.00 0.06 0.00 95 1051.6
20260831043658 61 180 114.0 0.0 0.00 0.06 0.00 95 1051.5
20260831043045 61 180 114.0 0.0 0.00 0.06 0.00 95 1051.5
20260831042415 61 180 114.0 0.0 0.00 0.06 0.00 95 1051.6
20260831041802 61 180 114.0 0.0 0.00 0.06 0.00 95 1051.5
20260831041148 61 180 114.0 0.0 0.00 0.06 0.00 95 1051.5
20260831040520 61 180 114.0 0.0 0.00 0.06 0.00 95 1051.5
20260831035858 61 180 114.0 0.0 0.00 0.12 0.00 95 1051.4
20260831035234 61 180 114.0 0.0 0.00 0.12 0.00 95 1051.5
20260831034556 61 180 114.0 0.0 0.00 0.12 0.00 95 1051.6
20260831033934 61 180 114.0 0.0 0.00 0.12 0.00 95 1051.7
20260831033304 61 180 114.0 0.0 0.00 0.12 0.00 95 1051.8
20260831032634 61 180 114.0 0.0 0.00 0.12 0.00 95 1051.8
20260831032005 61 180 114.0 0.0 0.00 0.12 0.00 95 1051.8
20260831031334 61 180 114.0 0.0 0.00 0.12 0.00 95 1051.8
20260831030705 61 180 114.0 0.0 0.00 0.12 0.00 95 1051.9
20260831030034 61 180 114.0 0.0 0.02 0.12 0.00 95 1051.9
20260831025412 61 180 114.0 0.0 0.02 0.12 0.00 95 1051.9
20260831024734 61 180 114.0 0.0 0.04 0.12 0.00 95 1052.0
20260831024104 61 180 114.0 0.0 0.04 0.12 0.00 95 1051.9
20260831023434 61 180 114.0 0.0 0.04 0.12 0.00 95 1052.2
20260831022804 61 180 114.0 0.0 0.04 0.12 0.00 95 1052.2
20260831022134 61 180 114.0 0.0 0.04 0.12 0.00 95 1052.1
20260831021456 61 180 114.0 0.0 0.04 0.12 0.00 95 1051.9
20260831020826 61 180 114.0 0.0 0.04 0.12 0.00 95 1052.0
20260831020148 61 180 114.0 0.0 0.02 0.10 0.00 95 1052.0
20260831015534 61 180 114.0 0.0 0.02 0.14 0.00 95 1052.3
20260831014905 61 180 114.0 0.0 0.02 0.14 0.00 95 1052.3
20260831014234 61 180 114.0 0.0 0.00 0.12 0.00 95 1052.4
20260831013605 61 180 114.0 0.0 0.00 0.12 0.00 95 1052.4
20260831012935 61 180 114.0 0.0 0.00 0.12 0.00 95 1052.5
20260831012313 61 180 114.0 0.0 0.00 0.12 0.00 95 1052.5
20260831011620 61 157 0.0 0.0 0.00 0.12 0.00 94 1052.5
20260831011513 60 180 0.0 0.0 0.00 0.12 0.00 95 1052.6
20260831011200 60 157 7.0 0.0 0.00 0.12 0.00 94 1052.7
20260831011053 60 135 0.0 0.0 0.00 0.12 0.00 94 1052.6
20260831010940 60 157 0.0 0.0 0.00 0.12 0.00 94 1052.7
20260831010827 60 135 0.0 0.0 0.00 0.12 0.00 94 1052.7
20260831010705 60 180 3.0 0.0 0.00 0.12 0.00 94 1052.7
20260831010545 60 157 3.0 0.0 0.00 0.12 0.00 94 1052.8
20260831010440 60 157 0.0 0.0 0.00 0.12 0.00 94 1052.8
20260831010325 60 135 0.0 0.0 0.00 0.12 0.00 94 1052.9
20260831005939 60 202 5.0 0.0 0.00 0.12 0.00 94 1052.9
20260831005833 60 112 1.0 0.0 0.00 0.12 0.00 94 1052.9
20260831005721 60 135 0.0 0.0 0.00 0.12 0.00 94 1053.0
20260831005610 60 135 0.0 0.0 0.00 0.12 0.00 94 1053.0
20260831005502 60 135 0.0 0.0 0.00 0.12 0.00 94 1053.0
20260831005349 60 157 0.0 0.0 0.00 0.12 0.00 94 1053.1
20260831005230 60 157 0.0 0.0 0.00 0.12 0.00 94 1053.0
20260831005115 60 157 0.0 0.0 0.00 0.12 0.00 94 1053.0
20260831005001 60 135 0.0 0.0 0.00 0.12 0.00 94 1053.1
20260831004843 60 157 0.0 0.0 0.00 0.12 0.00 94 1053.1
20260831004737 60 180 0.0 0.0 0.00 0.12 0.00 94 1053.2
20260831004622 60 180 6.0 0.0 0.00 0.12 0.00 94 1053.1
20260831004503 60 157 1.0 0.0 0.00 0.12 0.00 94 1053.1
20260831004350 60 112 0.0 0.0 0.00 0.12 0.00 94 1053.1
20260831004237 60 135 1.0 0.0 0.00 0.12 0.00 94 1053.2
20260831004130 60 180 1.0 0.0 0.00 0.12 0.00 94 1053.2
20260831004016 60 157 2.0 0.0 0.00 0.12 0.00 94 1053.1
20260831003905 60 180 3.0 0.0 0.00 0.12 0.00 94 1053.3
20260831003758 60 157 0.0 0.0 0.00 0.12 0.00 94 1053.3
20260831003637 60 157 0.0 0.0 0.00 0.12 0.00 94 1053.2
20260831003524 60 157 0.0 0.0 0.00 0.12 0.00 94 1053.2
20260831003356 60 180 0.0 0.0 0.00 0.12 0.00 94 1053.3
20260831003249 60 180 4.0 0.0 0.00 0.12 0.00 94 1053.3
20260831003138 60 157 3.0 0.0 0.00 0.12 0.00 94 1053.3
20260831003032 60 157 0.0 0.0 0.00 0.12 0.00 94 1053.3
20260831002903 60 157 0.0 0.0 0.00 0.12 0.00 94 1053.3
20260831002742 60 135 0.0 0.0 0.00 0.12 0.00 94 1053.3
20260831002616 60 157 0.0 0.0 0.00 0.12 0.00 94 1053.3
20260831002502 60 157 0.0 0.0 0.00 0.12 0.00 94 1053.3
20260831002339 60 180 0.0 0.0 0.00 0.12 0.00 94 1053.3
20260831002210 60 202 3.0 0.0 0.00 0.12 0.00 94 1053.3
20260831002104 60 157 0.0 0.0 0.00 0.12 0.00 94 1053.4
20260831001952 60 180 0.0 0.0 0.00 0.12 0.00 94 1053.5
20260831001845 60 180 0.0 0.0 0.00 0.12 0.00 94 1053.4
20260831001732 60 157 0.0 0.0 0.00 0.12 0.00 94 1053.5
20260831001603 60 157 0.0 0.0 0.00 0.12 0.00 94 1053.5
20260831001449 60 157 0.0 0.0 0.00 0.12 0.00 94 1053.5
20260831001327 60 157 0.0 0.0 0.00 0.12 0.00 94 1053.6
20260831001218 60 157 0.0 0.0 0.00 0.12 0.00 94 1053.6
20260831001112 60 157 2.0 0.0 0.00 0.12 0.00 94 1053.5
20260831001007 60 157 0.0 0.0 0.00 0.12 0.00 94 1053.6
20260831000900 60 157 0.0 0.0 0.00 0.12 0.00 94 1053.5
20260831000746 60 180 0.0 0.0 0.00 0.12 0.00 94 1053.5
20260831000617 61 157 0.0 0.0 0.00 0.12 0.00 94 1053.6
20260831000505 61 157 0.0 0.0 0.00 0.12 0.00 94 1053.6
20260831000350 61 180 7.0 0.0 0.00 0.12 0.00 94 1053.6
20260831000233 61 157 0.0 0.0 0.00 0.12 0.00 94 1053.6
20260831000116 61 157 1.0 0.0 0.00 0.12 0.00 94 1053.7
20260830235957 61 157 0.0 0.0 0.00 0.16 0.00 94 1053.7
20260830235842 61 180 4.0 0.0 0.00 0.16 0.00 94 1053.7
20260830235729 61 180 0.0 0.0 0.00 0.16 0.00 94 1053.7
20260830235608 61 180 4.0 0.0 0.00 0.16 0.00 94 1053.6
20260830235454 61 157 0.0 0.0 0.00 0.16 0.00 94 1053.7
20260830235342 61 157 1.0 0.0 0.00 0.16 0.00 94 1053.7
20260830235228 61 157 0.0 0.0 0.00 0.16 0.00 94 1053.7
20260830235110 61 180 5.0 0.0 0.00 0.16 0.00 94 1053.7
20260830235003 60 180 6.0 0.0 0.00 0.16 0.00 94 1053.6
20260830234841 61 135 0.0 0.0 0.00 0.16 0.00 94 1053.7
20260830234720 60 180 5.0 0.0 0.00 0.16 0.00 94 1053.7
20260830234607 61 157 5.0 0.0 0.00 0.16 0.00 94 1053.7
20260830234503 61 157 0.0 0.0 0.00 0.16 0.00 94 1053.8
20260830234357 61 157 0.0 0.0 0.00 0.16 0.00 94 1053.7
20260830234235 61 180 0.0 0.0 0.00 0.16 0.00 94 1053.8
20260830234115 61 157 2.0 0.0 0.00 0.16 0.00 94 1053.8
20260830234003 61 180 3.0 0.0 0.00 0.16 0.00 94 1053.8
20260830233858 61 135 0.0 0.0 0.00 0.16 0.00 94 1053.8
20260830233752 61 157 1.0 0.0 0.00 0.16 0.00 94 1053.8
20260830233648 61 157 0.0 0.0 0.00 0.16 0.00 94 1053.8
20260830233543 61 157 0.0 0.0 0.00 0.16 0.00 94 1053.8
20260830233436 61 157 7.0 0.0 0.00 0.16 0.00 94 1053.9
20260830233324 61 135 2.0 0.0 0.00 0.16 0.00 94 1053.9
20260830233213 61 157 0.0 0.0 0.00 0.16 0.00 94 1053.9
20260830233105 61 157 6.0 0.0 0.00 0.16 0.00 93 1053.9
20260830232952 61 180 0.0 0.0 0.00 0.16 0.00 93 1053.9
20260830232839 61 135 2.0 0.0 0.00 0.16 0.00 94 1053.9
20260830232727 61 157 4.0 0.0 0.00 0.16 0.00 94 1053.9
20260830232621 61 180 0.0 0.0 0.00 0.16 0.00 93 1054.0
20260830232510 61 180 0.0 0.0 0.00 0.16 0.00 93 1053.9
20260830232402 61 135 0.0 0.0 0.00 0.16 0.00 93 1053.9
20260830232251 61 180 6.0 0.0 0.00 0.16 0.00 93 1054.0
20260830232145 61 157 0.0 0.0 0.00 0.16 0.00 93 1054.0
20260830232031 61 157 5.0 0.0 0.00 0.16 0.00 93 1054.0
20260830231918 61 202 0.0 0.0 0.00 0.16 0.00 93 1054.0
20260830231758 61 180 0.0 0.0 0.00 0.16 0.00 93 1053.9
20260830231652 61 135 4.0 0.0 0.00 0.16 0.00 93 1054.0
20260830231547 61 135 0.0 0.0 0.00 0.16 0.00 93 1054.0
20260830231426 61 157 0.0 0.0 0.00 0.16 0.00 93 1053.9
20260830231304 61 157 2.0 0.0 0.00 0.16 0.00 93 1054.0
20260830231135 61 135 0.0 0.0 0.00 0.16 0.00 93 1054.0
20260830231024 61 157 4.0 0.0 0.00 0.16 0.00 93 1054.0
20260830230917 61 157 0.0 0.0 0.00 0.16 0.00 93 1054.1
20260830230756 61 157 0.0 0.0 0.00 0.16 0.00 93 1054.1
20260830230652 61 157 0.0 0.0 0.00 0.16 0.00 93 1054.1
20260830230545 61 157 0.0 0.0 0.00 0.16 0.00 93 1054.1
20260830230424 61 157 0.0 0.0 0.00 0.16 0.00 93 1054.1
20260830230304 61 157 0.0 0.0 0.00 0.16 0.00 93 1054.1
20260830230150 61 180 0.0 0.0 0.00 0.16 0.00 93 1054.2
20260830230038 61 180 0.0 0.0 0.00 0.16 0.00 93 1054.1
20260830225924 61 157 0.0 0.0 0.00 0.16 0.00 93 1054.2
20260830225802 61 157 0.0 0.0 0.00 0.16 0.00 93 1054.3
20260830225642 61 157 0.0 0.0 0.00 0.16 0.00 93 1054.2
20260830225537 61 157 0.0 0.0 0.00 0.16 0.00 93 1054.3
20260830225416 61 180 0.0 0.0 0.00 0.16 0.00 93 1054.3
20260830225313 61 180 0.0 0.0 0.00 0.16 0.00 93 1054.3
20260830225159 61 180 0.0 0.0 0.00 0.16 0.00 93 1054.2
20260830225030 61 180 0.0 0.0 0.00 0.16 0.00 93 1054.4
20260830224908 61 180 0.0 0.0 0.00 0.16 0.00 93 1054.4
20260830224737 61 180 0.0 0.0 0.00 0.16 0.00 93 1054.4
20260830224626 61 180 0.0 0.0 0.00 0.16 0.00 93 1054.3
20260830224519 61 180 3.0 0.0 0.00 0.16 0.00 93 1054.4
20260830224406 61 180 0.0 0.0 0.00 0.16 0.00 93 1054.3
20260830224253 61 157 0.0 0.0 0.00 0.16 0.00 93 1054.3
20260830224131 61 202 0.0 0.0 0.00 0.16 0.00 93 1054.4
20260830224012 61 180 0.0 0.0 0.00 0.16 0.00 93 1054.4
20260830223906 61 180 0.0 0.0 0.00 0.16 0.00 93 1054.3
20260830223744 61 180 0.0 0.0 0.00 0.16 0.00 93 1054.4
20260830223625 61 180 0.0 0.0 0.00 0.16 0.00 93 1054.4
20260830223518 61 180 0.0 0.0 0.00 0.16 0.00 93 1054.4
20260830223405 61 180 0.0 0.0 0.00 0.16 0.00 93 1054.4
20260830223300 61 180 0.0 0.0 0.00 0.16 0.00 93 1054.5
20260830223130 61 180 0.0 0.0 0.00 0.16 0.00 93 1054.5
20260830223017 61 180 0.0 0.0 0.00 0.16 0.00 93 1054.5
20260830222912 61 180 0.0 0.0 0.00 0.16 0.00 93 1054.5
20260830222807 61 180 0.0 0.0 0.00 0.16 0.00 93 1054.4